Regional Weather Roundup
Issued by NWS

Home | Current Version | Previous Version | Text Only | Print | Product List | Glossary On
Versions: 1 2 3 4 5 6 7 8 9 10 11 12 13 14 15 16 17 18 19 20 21 22 23 24 25 26 27 28 29 30 31 32 33 34 35 36 37 38 39 40 41 42 43 44 45 46 47 48 49 50
000
ASUS45 KREV 100910
RWRNV
NEVADA REGIONAL WEATHER ROUNDUP
NATIONAL WEATHER SERVICE RENO NV
100 AM PST WED FEB 10 2016

NOTE: "FAIR" INDICATES FEW OR NO CLOUDS BELOW 12,000 FEET WITH NO
SIGNIFICANT WEATHER AND/OR OBSTRUCTIONS TO VISIBILITY.

NVZ001-003-004-101000-
WESTERN NEVADA

CITY           SKY/WX    TMP DP  RH WIND       PRES   REMARKS
RENO           CLOUDY    37  31  78 N3        30.37F
CARSON CITY    FAIR      32  30  93 CALM      30.38F
PYRAMID LAKE     N/A     45 N/A N/A W6          N/A
FALLON         MOCLDY    33  31  92 S3        30.36F
LOVELOCK       MOCLDY    30  25  81 CALM      30.36F
HAWTHORNE      CLEAR     36  32  87 CALM      30.39S
$$

NVZ002-CAZ072-073-101000-
NORTHERN AND CENTRAL SIERRA

CITY           SKY/WX    TMP DP  RH WIND       PRES   REMARKS
S. LAKE TAHOE  MOCLDY    28  24  85 CALM      30.41S
TRUCKEE        MOCLDY    28  27  93 CALM      30.41S
SQUAW VLY 8000   N/A     41  14  33 S12         N/A
SUSANVILLE     CLEAR     32  32 100 CALM      30.37S
BLUE CANYON    CLEAR     55  13  18 S7        30.38R
MAMMOTH LAKES  FAIR      27  19  74 CALM      30.46S
BRIDGEPORT     FAIR      29  21  72 CALM      30.41F
$$

NVZ030-031-036-101000-
NORTHERN NEVADA

CITY           SKY/WX    TMP DP  RH WIND       PRES   REMARKS
ELKO           CLOUDY    11   7  84 E7        30.45S
WINNEMUCCA     PTCLDY    28  27  96 SE7       30.37F
WENDOVER       CLOUDY    28  27  93 CALM      30.47F
$$

NVZ035-037-101000-
CENTRAL NEVADA

CITY           SKY/WX    TMP DP  RH WIND       PRES   REMARKS
ELY            MOCLDY    14   7  73 S17       30.43S WCI  -3
EUREKA           N/A      8   4  83 SW7       30.42F
$$

NVZ013-014-101000-
SOUTH CENTRAL NEVADA

CITY           SKY/WX    TMP DP  RH WIND       PRES   REMARKS
TONOPAH        MOCLDY    31  23  72 N12       30.40F
$$

NVZ017-020-022-101000-
SOUTHERN NEVADA

CITY           SKY/WX    TMP DP  RH WIND       PRES   REMARKS
LAS VEGAS      PTCLDY    52  27  38 SW3       30.23F
N. LAS VEGAS   PTCLDY    51  26  37 VRB5      30.27F
NELLIS AFB     CLEAR     49  31  51 W5        30.27F
HENDERSON      PTCLDY    47  28  47 S7        30.29F
MERCURY        MOCLDY    49  25  39 E8        30.30S
$$



USA.gov is the U.S. government's official web portal to all federal, state and local government web resources and services.